User: anonymous   Login
Location: ?
(35.4214°N, 139.3011°E)
Time: 07:57:29
(UTC+00:00)
Language:

ISS - Orbit

View from above orbital plane
View from above orbital plane
View from above satellite
View from above satellite

Ground track
Ground track

The orbit data is extracted from the following two-line orbital elements,

1 25544U 98067A   20266.87336517  .00016717  00000-0  10270-3 0  9058
2 25544  51.6401 225.0838 0000463  74.6037 285.5164 15.48963172  7157
Epoch (UTC): 22 September 2020 20:57:38
Eccentricity: 0.0000463
inclination: 51.6401°
perigee height: 419 km
apogee height: 420 km
right ascension of ascending node: 225.0838°
argument of perigee: 74.6037°
revolutions per day: 15.48963172
mean anomaly at epoch: 285.5164°
orbit number at epoch: 715

The dashed part of the orbit path shows where the satellite is in the earth's shadow,  

DLR